Regional Weather Roundup
Issued by NWS

Home | Current Version | Previous Version | Text Only | Print | Product List | Glossary On
Versions: 1 2 3 4 5 6 7 8 9 10 11 12 13 14 15 16 17 18 19 20 21 22 23 24 25 26 27 28 29 30 31 32 33 34 35 36 37 38 39 40 41 42 43 44 45 46 47 48 49 50
000
ASUS43 KDTX 010610
RWRMI
MICHIGAN HOURLY REGIONAL WEATHER ROUNDUP
NATIONAL WEATHER SERVICE DETROIT/PONTIAC MI
200 AM EDT FRI AUG 01 2014

NOTE: "FAIR" INDICATES FEW OR NO CLOUDS BELOW 12,000 FEET WITH NO
SIGNIFICANT WEATHER AND/OR OBSTRUCTION TO VISIBILITY.

MIZ047>049-052>055-059>063-066>070-074>076-081>083-010700-
SOUTHEAST LOWER MICHIGAN

CITY           SKY/WX    TMP DP  RH WIND       PRES   REMARKS
ADRIAN         CLEAR     61  58  90 SW3       30.07F
6HR MIN TEMP:  60; 6HR MAX TEMP:  76;

ALMA           PTCLDY    62  59  90 S5        30.03F
6HR MIN TEMP:  60; 6HR MAX TEMP:  72;

ANN ARBOR      CLEAR     57  56  96 CALM      30.06S
BAD AXE        CLEAR     60  58  95 CALM      30.04S
6HR MIN TEMP:  58; 6HR MAX TEMP:  73;

DETROIT CITY   CLEAR     68  59  73 SW5       30.05F
6HR MIN TEMP:  67; 6HR MAX TEMP:  80;

DETROIT        PTCLDY    65  59  81 S5        30.06F
6HR MIN TEMP:  64; 6HR MAX TEMP:  78;

FLINT          PTCLDY    62  57  83 CALM      30.04F
6HR MIN TEMP:  59; 6HR MAX TEMP:  73;

GROSSE ILE     CLEAR     66  61  82 CALM      30.04F
HILLSDALE      CLEAR     62  60  91 CALM      30.08S
6HR MIN TEMP:  58; 6HR MAX TEMP:  74;

HOWELL         CLEAR     63  58  86 SW5       30.05S
6HR MIN TEMP:  63; 6HR MAX TEMP:  73;


CITY           SKY/WX    TMP DP  RH WIND       PRES   REMARKS
JACKSON        CLEAR     62  58  86 SW6       30.06F
6HR MIN TEMP:  61; 6HR MAX TEMP:  74;

LAMBERTVILLE   PTCLDY    61  59  94 CALM      30.07F FOG
LANSING        PTCLDY    64  58  80 SW3       30.05S
6HR MIN TEMP:  63; 6HR MAX TEMP:  75;

LAPEER         NOT AVBL
MASON          CLEAR     62  57  86 CALM      30.06S
MONROE         CLEAR     61  59  94 CALM      30.05S
MT. CLEMENS    CLEAR     59  57  92 N1        30.03F
6HR MIN TEMP:  59; 6HR MAX TEMP:  71; 6HR PCP: TRACE;

PONTIAC        CLEAR     63  58  83 CALM      30.05S
6HR MIN TEMP:  63; 6HR MAX TEMP:  75;

PORT HOPE        N/A     63  57  81 SW7       30.00F
6HR MIN TEMP:  63; 6HR MAX TEMP:  70;

PORT HURON     FOG       54  54 100 CALM      30.04F VSB 3/4
TRI CITIES     MOCLDY    65  60  84 S3        30.03S
6HR MIN TEMP:  63; 6HR MAX TEMP:  74;

YPSILANTI      CLEAR     65  58  78 SW3       30.06F
6HR MIN TEMP:  63; 6HR MAX TEMP:  80;

$$
MIZ043>046-050>051-056>058-064>065-071>073-077>080-010700-
SOUTHWEST LOWER MICHIGAN

CITY           SKY/WX    TMP DP  RH WIND       PRES   REMARKS
BATTLE CREEK   CLEAR     64  58  80 SW6       30.06S
6HR MIN TEMP:  64; 6HR MAX TEMP:  75;

BENTON HARBOR  CLEAR     61  59  93 CALM      30.05S FOG
6HR MIN TEMP:  60; 6HR MAX TEMP:  76;

BIG RAPIDS     MOCLDY    60  60 100 CALM      30.02F
6HR MIN TEMP:  59; 6HR MAX TEMP:  72;

COLDWATER      CLEAR     65  60  86 CALM      30.07S
6HR MIN TEMP:  62; 6HR MAX TEMP:  75;

HOLLAND        CLEAR     65  59  81 CALM      30.04S
6HR MIN TEMP:  63; 6HR MAX TEMP:  77;

GRAND RAPIDS   PTCLDY    67  61  81 SW6       30.03F
6HR MIN TEMP:  65; 6HR MAX TEMP:  76;

KALAMAZOO      CLEAR     64  59  83 SW7       30.06S
6HR MIN TEMP:  63; 6HR MAX TEMP:  77;

MARSHALL       CLEAR     62  58  86 S3        30.06S
MUSKEGON       PTCLDY    63  57  81 S5        30.02F
6HR MIN TEMP:  62; 6HR MAX TEMP:  71;

$$
MIZ016>042-010700-
NORTHERN LOWER MICHIGAN

CITY           SKY/WX    TMP DP  RH WIND       PRES   REMARKS
ALPENA         CLOUDY    60  57  89 CALM      30.01S
6HR MIN TEMP:  57; 6HR MAX TEMP:  72;

BEAVER ISLAND  FOG       54  54 100 CALM      29.99F VSB 1/4
6HR MIN TEMP:  52; 6HR MAX TEMP:  65;

BELLAIRE       PTCLDY    55  53  94 CALM      30.00S
6HR MIN TEMP:  54; 6HR MAX TEMP:  73;

CADILLAC       CLEAR     51  51 100 CALM      30.03S
CHARLEVOIX     PTCLDY    59  59 100 SE5       30.02F FOG
6HR MIN TEMP:  59; 6HR MAX TEMP:  71;

FRANKFORT      MOCLDY    62  56  82 CALM      30.01R
GAYLORD        MOCLDY    56  52  86 CALM      30.02S
6HR MIN TEMP:  53; 6HR MAX TEMP:  71;

GRAYLING       PTCLDY    54  54 100 CALM      30.02F
6HR MIN TEMP:  53; 6HR MAX TEMP:  74;

HARBOR SPRINGS PTCLDY    60  58  92 CALM      30.00S
HOUGHTON LAKE  CLEAR     51  50  96 CALM      30.03S
6HR MIN TEMP:  51; 6HR MAX TEMP:  74;

MANISTEE       CLEAR     57  54  88 SE3       30.02R
OSCODA         CLEAR     56  53  90 CALM      30.00S
PELLSTON       CLEAR     54  53  97 CALM      30.00S
6HR MIN TEMP:  54; 6HR MAX TEMP:  69;

TRAVERSE CITY  CLOUDY    64  58  80 CALM      29.99R
6HR MIN TEMP:  63; 6HR MAX TEMP:  76;

$$
MIZ007>008-015-010700-
EASTERN UPPER MICHIGAN

CITY           SKY/WX    TMP DP  RH WIND       PRES   REMARKS
KINROSS        CLEAR     52  52 100 CALM      29.99S
6HR MIN TEMP:  52; 6HR MAX TEMP:  64;

MACKINAC ISLAN PTCLDY    57  57  99 S6        29.99S
6HR MIN TEMP:  57; 6HR MAX TEMP:  65;

NEWBERRY       CLEAR     47  46  95 N13       30.00R
6HR MIN TEMP:  47; 6HR MAX TEMP:  68; 6HR PCP:  0.25;

S. S. MARIE    PTCLDY    52  49  89 CALM      29.99R
6HR MIN TEMP:  51; 6HR MAX TEMP:  64;

$$
MIZ004>006-011>014-085-010700-
CENTRAL UPPER MICHIGAN

CITY           SKY/WX    TMP DP  RH WIND       PRES   REMARKS
MANISTIQUE     CLEAR     48  47  97 CALM      29.99R
ESCANABA       CLEAR     54  48  82 W3        29.99R
6HR MIN TEMP:  50; 6HR MAX TEMP:  73;

MENOMINEE      PTCLDY    63  57  82 CALM      29.98S
6HR MIN TEMP:  61; 6HR MAX TEMP:  77;

SAWYER-GWINN   CLEAR     51  48  90 CALM      30.00R
6HR MIN TEMP:  51; 6HR MAX TEMP:  68;

$$
MIZ001>003-009>011-084-010700-
WESTERN UPPER MICHIGAN

CITY           SKY/WX    TMP DP  RH WIND       PRES   REMARKS
IRON MOUNTAIN  MOCLDY    54  51  90 CALM      30.00R
6HR MIN TEMP:  52; 6HR MAX TEMP:  75;

HOUGHTON       CLEAR     56  49  77 E6        29.99R
6HR MIN TEMP:  55; 6HR MAX TEMP:  70;

COPPER HARBOR    N/A     57  48  72 W5        29.97F
6HR MIN TEMP:  54; 6HR MAX TEMP:  69;

$$

ABBREVIATIONS USED IN REMARKS
   TC - TEMPERATURE IN CELSIUS
  WCI - WIND CHILL INDEX
   HX - HEAT INDEX
  VSB - VISIBILITY




USA.gov is the U.S. government's official web portal to all federal, state and local government web resources and services.